Wind_Speed
2 6 8 8 8 6 5 7 9 9 14 16 17 14 16 13 12 14 13 15 17 17 17 18 19 16 16 15 18 20 21 18 17 18 18 22 20 20 23 25 27 29 32 35
12 11 9 8 8 5 6 8 8 8 13 15 11 8 15 15 11 11 13 17 22 23 24 25 28 23 20 15 16 21 23 22 22 19 20 22 23 24 25 26 28 31 34 37
8 5 5 5 6 3 4 8 9 8 14 11 9 9 17 20 22 17 14 10 15 21 23 12 15 27 23 21 19 23 21 23 25 23 23 20 22 25 27 28 28 31 34 37
5 3 1 5 5 5 3 7 10 11 11 4 12 4 14 16 20 20 20 22 20 8 5 7 7 5 22 18 20 14 10 12 19 24 23 21 23 25 27 29 33 37 38 42
3 2 3 5 5 6 4 10 13 11 6 6 15 3 10 17 20 19 16 15 20 16 14 11 8 6 3 12 12 11 11 10 10 14 19 29 32 33 36 39 41 43 43 46
2 6 6 9 7 7 5 9 12 5 5 1 10 2 14 18 19 19 17 15 10 12 12 10 11 7 5 3 8 10 9 9 7 11 16 24 30 35 40 42 44 44 46 42
9 7 5 11 6 3 3 8 6 3 4 4 10 0 10 14 14 13 16 18 17 12 9 4 3 8 12 7 11 6 10 8 12 16 23 24 27 28 30 34 38 46 33 39
4 3 6 9 6 4 2 6 3 3 4 7 5 2 7 8 9 7 8 11 11 12 11 12 8 2 4 9 10 14 14 15 19 22 24 29 29 32 36 41 36 36 37 23
3 3 5 6 9 6 4 7 4 1 3 2 3 3 7 7 3 4 6 6 10 8 11 13 13 7 6 11 11 12 15 19 21 25 30 32 34 34 46 51 43 28 33 22
3 2 3 4 5 5 6 8 5 5 3 7 5 8 3 10 6 5 4 4 7 8 9 12 15 17 17 18 22 21 18 23 22 28 32 32 32 37 40 41 43 32 24 17
3 4 4 5 6 9 9 7 4 4 2 4 5 2 5 7 15 18 19 17 14 12 13 13 14 16 18 20 21 21 23 23 26 27 31 33 31 34 40 35 41 23 18 17
4 5 6 10 7 6 3 1 2 2 4 5 5 8 13 14 26 27 22 20 19 18 17 17 18 19 20 22 24 24 24 25 22 25 28 28 30 36 37 18 8 16 16 15
5 4 4 3 4 4 5 9 16 14 12 12 10 7 10 26 29 27 22 19 18 19 18 19 21 22 22 23 26 27 26 25 27 28 25 24 28 28 20 17 16 10 7 9
11 9 7 10 11 14 16 18 16 10 7 10 14 20 23 24 25 24 20 18 17 20 24 24 24 24 25 25 20 18 17 20 20 24 19 20 29 30 17 19 14 13 9 11
7 8 10 12 14 14 19 21 16 16 16 15 21 19 23 22 19 19 18 20 22 23 22 22 23 23 22 19 20 17 17 20 21 20 20 24 28 27 24 22 14 13 12 14
9 7 11 18 15 19 22 23 25 23 21 18 16 18 15 14 11 14 17 20 20 21 23 26 28 29 28 26 24 24 22 18 19 22 21 20 25 25 21 22 18 19 18 16
10 7 9 8 11 13 14 5 10 10 7 5 7 9 10 11 12 14 16 18 22 23 25 26 28 31 33 34 33 27 24 21 16 19 22 24 28 26 26 27 21 19 16 18
11 9 9 7 10 4 2 8 10 7 8 12 12 10 10 12 15 18 18 17 19 20 23 24 27 26 27 24 25 27 29 28 25 22 23 27 28 27 27 22 18 12 15 18
5 6 6 3 3 12 6 6 6 9 11 13 12 10 10 12 13 16 15 19 20 22 26 30 30 29 31 33 35 36 39 34 27 24 29 28 26 23 26 17 11 14 17 19
6 9 8 5 4 4 5 8 9 12 12 14 11 13 16 19 18 17 22 24 26 29 29 31 30 33 37 36 33 29 27 30 25 22 26 23 21 19 18 11 14 16 18 24
8 8 8 8 8 9 15 17 18 10 10 12 18 23 27 27 28 31 33 34 34 33 34 36 39 42 43 34 32 26 24 29 24 20 22 21 15 11 12 12 15 15 21 24
8 5 5 6 5 5 3 12 16 18 23 28 30 32 33 35 39 40 42 43 44 44 45 46 49 48 45 40 38 34 29 28 22 21 20 13 11 12 9 15 14 16 22 24
6 4 7 6 9 21 29 27 30 33 35 36 37 39 41 43 44 45 45 43 42 42 40 35 33 34 32 29 29 31 30 27 20 19 19 14 16 10 15 18 14 19 23 24
15 16 18 20 17 25 32 32 30 29 30 31 33 35 36 38 39 39 39 38 38 35 30 26 25 26 24 22 22 24 29 22 17 18 21 22 15 10 16 7 14 18 22 24
23 24 21 24 23 25 25 23 24 23 23 25 26 26 28 30 30 30 32 30 26 24 23 22 23 23 24 24 27 24 22 15 16 18 22 17 18 18 14 15 16 19 21 25
12 14 18 21 23 22 19 20 20 24 25 27 27 26 26 28 31 30 28 25 25 23 22 22 21 22 22 22 26 23 19 13 13 17 13 12 17 11 12 13 15 18 22 25
Wind_Direction
94 115 91 66 45 30 30 18 11 27 9 354 349 3 11 342 304 297 295 286 284 276 271 265 261 253 259 266 267 252 263 258 256 248 269 264 278 279 281 285 285 282 280 278
118 91 85 73 30 36 24 6 350 3 1 350 353 59 24 19 334 311 291 282 279 281 280 280 268 252 236 249 250 258 255 260 259 245 293 260 274 280 284 287 286 290 292 290
127 106 91 47 34 22 5 359 349 338 345 345 16 61 47 52 56 49 34 353 288 278 284 304 277 248 243 240 246 258 265 267 270 270 274 281 285 287 286 289 291 290 289 292
146 137 44 9 46 34 5 356 344 330 341 21 29 68 33 43 50 46 41 43 49 52 41 13 2 304 228 243 256 270 238 237 270 269 282 293 298 301 298 295 286 288 287 288
193 159 3 354 318 316 324 345 339 329 20 78 24 68 17 27 28 34 34 38 44 54 52 44 45 26 295 273 258 237 232 255 281 280 282 286 289 296 295 294 290 286 287 287
133 152 81 20 309 264 316 339 349 355 3 64 21 29 46 28 19 27 21 24 30 48 46 44 53 38 26 334 275 274 274 263 272 284 300 295 292 291 290 289 286 281 284 286
121 116 80 16 9 232 274 350 357 26 24 349 332 19 49 21 13 10 15 19 12 1 353 1 29 14 339 331 327 313 305 283 273 272 274 281 277 282 282 283 286 279 284 288
73 128 36 34 37 90 22 31 32 324 335 338 8 42 21 13 4 8 358 8 0 359 351 10 353 292 251 296 273 277 288 286 281 275 275 280 291 302 306 304 312 327 309 303
11 92 94 36 44 50 14 33 22 265 292 279 311 327 242 351 333 351 332 343 348 349 350 338 345 330 275 302 296 292 285 292 288 287 295 302 309 314 315 297 305 301 297 289
273 315 172 358 358 339 7 346 329 324 284 299 278 292 346 314 344 353 321 324 313 306 305 311 314 320 320 316 320 315 304 288 297 303 308 313 313 311 317 320 282 290 293 283
270 272 290 328 323 331 335 325 315 298 269 297 296 287 218 324 338 336 334 326 320 316 312 306 304 303 305 307 309 308 302 302 304 313 310 309 315 312 318 316 294 277 281 284
277 297 312 307 315 308 274 293 4 334 297 260 250 276 248 287 322 325 325 320 315 312 309 307 304 302 301 300 301 300 293 292 299 300 303 304 316 319 330 333 334 288 305 290
285 288 310 288 284 273 262 294 311 307 289 257 269 278 287 313 311 315 320 318 315 314 313 306 300 294 293 295 294 295 296 293 295 297 304 317 317 323 320 316 2 6 328 302
287 281 267 269 279 275 286 288 298 302 271 286 270 288 295 302 307 311 320 322 323 325 325 321 315 314 313 311 313 317 310 303 305 310 313 320 321 311 296 312 339 356 354 337
295 278 279 278 276 276 284 288 285 279 277 275 291 285 299 304 303 309 317 323 320 320 324 328 329 327 323 315 311 308 317 309 310 309 308 315 315 304 304 294 316 332 344 335
297 288 289 288 282 282 285 294 291 285 283 280 275 285 296 297 304 312 314 315 320 326 330 329 328 323 323 324 326 320 315 310 313 307 308 310 305 299 316 309 315 323 327 333
301 295 297 281 294 301 297 290 317 317 314 306 295 292 290 298 306 309 307 310 314 325 335 332 330 324 320 318 315 308 305 311 306 308 310 304 302 293 294 294 306 314 327 325
292 298 287 282 307 261 271 291 301 288 298 318 321 308 299 302 303 305 310 318 324 329 329 328 332 323 320 320 320 322 314 305 309 304 308 298 289 292 293 303 310 324 321 320
274 293 278 272 273 290 280 274 256 292 300 301 297 285 283 288 297 311 305 307 307 310 322 322 321 327 328 320 312 309 308 305 303 295 303 306 294 296 297 293 322 315 315 320
279 288 273 264 259 271 267 235 275 298 289 287 284 284 293 301 300 298 300 302 306 310 312 313 313 317 321 321 314 310 300 316 309 291 312 312 303 300 296 324 316 314 322 328
296 301 270 258 256 263 264 280 293 292 301 301 302 301 302 301 300 305 305 304 306 308 309 308 307 309 311 314 302 301 305 308 301 287 288 303 303 289 272 318 312 317 327 327
289 276 263 258 244 261 314 304 310 292 292 298 297 295 293 290 290 290 292 294 295 295 297 297 298 299 300 300 297 290 306 311 299 287 298 295 269 268 282 303 313 326 329 326
279 246 261 265 263 287 293 293 290 288 290 290 289 287 288 291 292 293 294 295 296 298 301 303 303 306 305 301 292 285 288 307 288 286 291 276 272 249 295 273 329 331 328 324
277 286 282 288 287 284 284 291 297 298 295 293 294 297 296 295 296 299 300 298 297 299 299 301 308 314 322 316 309 297 285 299 284 284 286 279 260 273 281 350 332 326 325 327
289 295 291 287 290 291 300 309 306 305 306 309 307 307 312 312 310 309 307 306 306 304 305 305 312 318 324 324 316 325 316 297 290 284 286 302 300 267 292 327 324 329 330 332
286 281 284 284 302 305 320 315 315 312 313 311 309 312 313 312 311 309 306 306 308 308 307 307 308 313 316 313 321 328 324 307 297 287 318 274 315 323 325 317 329 332 332 335
Height
3180 3182 3182 3182 3182 3182 3181 3181 3181 3180 3179 3177 3176 3175 3173 3170 3169 3169 3169 3168 3168 3169 3169 3168 3168 3168 3169 3169 3169 3171 3171 3171 3171 3171 3175 3173 3172 3172 3171 3170 3169 3167 3165 3161
3182 3182 3183 3182 3182 3182 3181 3181 3180 3179 3178 3177 3175 3174 3173 3170 3167 3165 3165 3165 3163 3163 3162 3162 3162 3162 3163 3164 3164 3164 3165 3168 3167 3169 3165 3167 3168 3168 3167 3165 3164 3162 3160 3156
3181 3183 3182 3182 3182 3182 3181 3180 3179 3179 3177 3176 3174 3175 3174 3172 3169 3167 3164 3162 3159 3157 3157 3157 3155 3155 3157 3159 3159 3158 3161 3163 3164 3165 3165 3164 3164 3164 3163 3161 3160 3158 3154 3150
3182 3183 3183 3183 3183 3182 3181 3180 3179 3178 3177 3177 3175 3175 3174 3172 3170 3167 3164 3160 3157 3155 3155 3154 3152 3149 3152 3155 3155 3156 3155 3155 3158 3161 3162 3162 3161 3160 3159 3157 3155 3151 3148 3143
3183 3183 3183 3183 3182 3182 3182 3179 3178 3177 3176 3177 3177 3176 3175 3171 3168 3166 3164 3162 3159 3156 3155 3154 3153 3153 3153 3153 3152 3152 3152 3153 3154 3156 3158 3158 3157 3155 3153 3151 3148 3144 3140 3135
3181 3182 3183 3182 3180 3180 3180 3179 3178 3176 3176 3177 3177 3176 3175 3171 3169 3167 3164 3162 3160 3158 3157 3155 3153 3153 3153 3152 3152 3152 3152 3152 3153 3153 3153 3151 3149 3146 3143 3140 3137 3133 3127 3125
3181 3182 3182 3181 3179 3178 3179 3179 3178 3177 3177 3177 3176 3175 3175 3174 3170 3168 3165 3163 3161 3159 3157 3156 3154 3153 3154 3152 3151 3150 3148 3147 3147 3147 3145 3143 3138 3133 3129 3126 3122 3116 3108 3107
3182 3183 3182 3181 3180 3179 3179 3179 3180 3180 3178 3177 3175 3175 3177 3174 3172 3169 3168 3165 3163 3160 3157 3155 3154 3152 3153 3152 3149 3146 3147 3146 3145 3142 3139 3137 3135 3132 3129 3119 3107 3091 3104 3102
3182 3183 3182 3182 3181 3181 3180 3180 3180 3179 3178 3178 3175 3175 3174 3173 3170 3168 3167 3165 3163 3160 3157 3155 3154 3153 3151 3149 3146 3146 3144 3143 3140 3137 3135 3133 3131 3125 3121 3112 3106 3095 3095 3095
3183 3183 3182 3181 3181 3181 3180 3180 3179 3178 3176 3175 3173 3171 3171 3169 3167 3167 3165 3162 3160 3159 3157 3155 3152 3150 3148 3145 3143 3142 3141 3138 3136 3134 3131 3128 3124 3118 3111 3103 3096 3089 3088 3088
3181 3182 3182 3181 3180 3180 3179 3178 3177 3177 3176 3173 3170 3169 3167 3166 3165 3164 3163 3161 3159 3156 3154 3152 3150 3147 3145 3142 3141 3138 3135 3136 3134 3131 3126 3121 3118 3111 3103 3092 3085 3082 3083 3081
3180 3180 3179 3179 3178 3177 3177 3177 3176 3176 3176 3173 3172 3170 3165 3164 3163 3161 3160 3157 3155 3153 3151 3149 3146 3143 3140 3138 3136 3133 3129 3128 3127 3123 3119 3114 3111 3104 3094 3085 3079 3081 3079 3077
3179 3179 3179 3177 3179 3177 3176 3176 3174 3173 3172 3170 3169 3168 3165 3162 3159 3157 3155 3153 3151 3149 3147 3145 3141 3138 3135 3132 3129 3125 3123 3122 3119 3115 3113 3110 3105 3096 3092 3087 3081 3078 3076 3074
3177 3177 3178 3178 3177 3175 3174 3173 3171 3171 3171 3167 3166 3164 3163 3161 3158 3154 3151 3150 3148 3145 3142 3140 3137 3134 3131 3128 3124 3121 3118 3115 3113 3111 3108 3103 3099 3093 3088 3084 3078 3075 3074 3072
3175 3174 3174 3173 3171 3170 3169 3167 3168 3167 3167 3164 3162 3159 3158 3156 3154 3151 3148 3146 3144 3142 3140 3137 3134 3132 3129 3126 3122 3117 3113 3110 3109 3106 3103 3101 3096 3091 3085 3082 3077 3073 3069 3068
3172 3172 3170 3168 3168 3165 3163 3162 3161 3160 3159 3157 3156 3156 3154 3152 3150 3149 3147 3145 3142 3140 3138 3134 3132 3129 3125 3122 3118 3114 3110 3105 3102 3099 3097 3094 3090 3088 3084 3081 3075 3071 3067 3067
3169 3168 3168 3165 3163 3162 3160 3158 3156 3155 3155 3155 3155 3153 3151 3150 3148 3147 3145 3142 3140 3137 3134 3131 3128 3124 3121 3117 3113 3109 3106 3102 3097 3094 3091 3088 3084 3081 3077 3075 3071 3069 3067 3065
3165 3165 3164 3163 3161 3161 3158 3156 3154 3153 3152 3151 3150 3149 3148 3147 3145 3143 3141 3139 3136 3134 3132 3128 3125 3121 3118 3114 3110 3106 3101 3097 3093 3088 3084 3082 3079 3075 3070 3069 3067 3067 3065 3061
3163 3163 3163 3163 3162 3159 3155 3153 3153 3152 3152 3149 3147 3146 3144 3142 3141 3139 3137 3134 3132 3129 3126 3123 3120 3116 3112 3107 3103 3100 3096 3092 3087 3083 3079 3075 3073 3069 3067 3066 3065 3064 3061 3057
3162 3161 3162 3161 3161 3157 3153 3152 3151 3151 3150 3146 3144 3142 3140 3139 3137 3136 3132 3130 3126 3123 3119 3115 3113 3110 3106 3100 3095 3092 3090 3085 3081 3078 3074 3071 3069 3066 3064 3063 3062 3060 3056 3052
3159 3159 3159 3158 3157 3154 3151 3150 3149 3150 3150 3144 3142 3139 3136 3133 3131 3127 3125 3122 3119 3115 3111 3108 3104 3101 3099 3095 3089 3086 3083 3077 3075 3073 3069 3066 3064 3063 3061 3061 3059 3056 3052 3047
3157 3157 3155 3153 3152 3151 3149 3148 3149 3146 3141 3139 3136 3133 3130 3127 3124 3121 3118 3115 3111 3108 3104 3101 3095 3090 3089 3086 3081 3079 3076 3072 3068 3066 3063 3061 3060 3058 3056 3056 3055 3052 3047 3043
3154 3154 3154 3154 3150 3147 3145 3142 3139 3137 3135 3132 3128 3125 3121 3117 3114 3110 3106 3104 3101 3097 3093 3090 3085 3081 3079 3076 3072 3069 3068 3065 3061 3059 3058 3056 3053 3047 3052 3051 3048 3046 3043 3039
3149 3148 3147 3146 3145 3141 3137 3135 3132 3129 3126 3123 3120 3116 3113 3109 3105 3101 3097 3093 3090 3088 3085 3082 3079 3075 3072 3069 3066 3063 3062 3058 3056 3054 3051 3049 3047 3042 3048 3043 3044 3043 3039 3034
3144 3142 3139 3136 3135 3132 3131 3129 3124 3121 3118 3115 3112 3109 3106 3102 3098 3094 3090 3087 3085 3081 3078 3076 3074 3071 3068 3065 3062 3058 3056 3053 3052 3050 3044 3045 3046 3040 3041 3039 3040 3038 3034 3030
3136 3134 3133 3130 3129 3126 3126 3123 3119 3115 3112 3108 3104 3102 3100 3095 3090 3087 3083 3081 3079 3076 3074 3071 3070 3067 3065 3061 3059 3056 3052 3050 3049 3048 3046 3042 3044 3042 3040 3040 3037 3034 3031 3026